CZ-4B R/B

Last updated on Mon Sep 21 2026 00:02:09 GMT+0000 (Coordinated Universal Time)

1 29507U 06046C 26263.36527437 .00002311 00000+0 11439-3 0 9992 2 29507 97.5366 307.6712 0030883 313.6460 46.2213 15.18426090 89575
UTC large
Height (km)
Speed (km/s)
/
Latitude / Longitude
Inclination (degrees)
Orbital Period (minutes)
Azimuth
Elevation
Range (km)
Doppler Factor

Next 0 passes for location: London (51.5072 / 0.1276)

No passes found over London.
CZ-4B R/B